FW6376 Weather Reports


Display with metric or nautical units.
time (UTC)temp
F
wind
direction
speed
MPH
gust
MPH
rain 1hr
in
rain 24hr
in
rain mn
in
humidity
%
barometer
mb
20260503024604 41 285 0.0 0.0 0.00 0.23 0.23 71 1012.9
20260503023058 42 285 0.0 0.0 0.00 0.23 0.23 71 1013.0
20260503021557 42 285 0.0 0.0 0.00 0.23 0.23 71 1013.1
20260503020101 43 285 0.0 0.0 0.00 0.23 0.23 71 1013.2
20260503014559 43 285 0.0 0.0 0.00 0.23 0.23 70 1013.2
20260503013056 43 285 0.0 2.0 0.00 0.23 0.23 71 1013.1
20260503011606 44 284 0.0 0.0 0.00 0.23 0.23 72 1012.9
20260503010058 44 284 0.0 2.0 0.01 0.23 0.23 72 1012.9
20260503004555 44 284 0.0 2.0 0.01 0.23 0.23 71 1012.7
20260503003053 45 285 0.0 1.0 0.01 0.23 0.23 71 1012.5
20260503001555 45 285 0.0 0.0 0.01 0.23 0.23 71 1012.3
20260503000108 46 285 0.0 2.0 0.00 0.22 0.22 69 1012.1
20260502234552 47 281 0.0 3.0 0.00 0.22 0.22 67 1011.9
20260502233051 48 309 0.0 2.0 0.00 0.22 0.22 68 1011.7
20260502231614 49 281 0.0 1.0 0.00 0.22 0.22 69 1011.5
20260502230051 50 281 0.0 0.0 0.00 0.22 0.22 68 1011.2
20260502224557 50 281 0.0 0.0 0.00 0.22 0.22 65 1011.1
20260502223050 51 281 0.0 0.0 0.00 0.22 0.22 66 1011.0
20260502221553 51 281 0.0 0.0 0.00 0.22 0.22 62 1010.9
20260502220051 51 281 0.0 1.0 0.00 0.22 0.22 60 1010.8
20260502214549 51 248 0.0 2.0 0.00 0.22 0.22 58 1011.0
20260502213047 52 61 1.0 4.0 0.00 0.22 0.22 61 1011.0
20260502211547 51 86 0.0 3.0 0.00 0.22 0.22 61 1011.0
20260502210046 51 69 0.0 8.0 0.00 0.22 0.22 61 1010.9
20260502204548 52 325 1.0 6.0 0.00 0.22 0.22 60 1011.0
20260502203047 51 333 0.0 2.0 0.00 0.22 0.22 64 1011.0
20260502201543 51 152 0.0 3.0 0.00 0.22 0.22 62 1011.2
20260502200042 51 118 2.0 4.0 0.00 0.22 0.22 64 1011.2
20260502194541 51 123 1.0 3.0 0.00 0.22 0.22 64 1011.5
20260502193045 52 286 0.0 3.0 0.01 0.22 0.22 67 1011.7
20260502191535 51 285 1.0 4.0 0.03 0.22 0.22 67 1011.8
20260502190033 50 244 0.0 5.0 0.03 0.22 0.22 70 1012.0
20260502184528 49 238 0.0 3.0 0.04 0.22 0.22 72 1012.1
20260502183026 47 127 0.0 2.0 0.05 0.21 0.21 75 1012.0
20260502181525 47 128 0.0 3.0 0.03 0.19 0.19 73 1012.3
20260502163122 47 159 0.0 2.0 0.01 0.12 0.12 71 1012.1
20260502161519 48 160 0.0 2.0 0.00 0.11 0.11 71 1012.0
20260502151509 46 207 0.0 1.0 0.01 0.11 0.11 77 1012.4
20260502130113 41 198 0.0 1.0 0.01 0.10 0.10 80 1013.1
20260502123119 41 198 0.0 1.0 0.01 0.10 0.10 80 1013.3
20260502121548 40 198 0.0 1.0 0.01 0.10 0.10 81 1013.1
20260502114550 40 198 0.0 0.0 0.00 0.09 0.09 80 1013.2
20260502113044 40 198 0.0 0.0 0.00 0.09 0.09 80 1013.2
20260502111542 40 198 0.0 2.0 0.00 0.09 0.09 80 1013.3
20260502110047 40 198 0.0 2.0 0.01 0.09 0.09 80 1012.9
20260502104541 40 198 0.0 1.0 0.01 0.09 0.09 80 1012.9
20260502103039 40 198 0.0 1.0 0.01 0.09 0.09 80 1012.7
20260502101545 40 198 0.0 0.0 0.01 0.09 0.09 80 1012.8
20260502071529 38 198 0.0 0.0 0.00 0.03 0.03 76 1013.0
20260502070025 38 198 0.0 0.0 0.03 0.03 0.03 74 1013.0
20260502064520 38 198 0.0 1.0 0.03 0.03 0.03 71 1013.4
20260502063019 38 198 0.0 1.0 0.03 0.03 0.03 68 1013.3
20260502061517 38 198 0.0 1.0 0.03 0.03 0.03 66 1013.4
20260502060015 38 198 0.0 2.0 0.00 0.00 0.00 65 1013.5
20260502054521 38 198 0.0 0.0 0.00 0.00 0.00 64 1013.5
20260502053010 37 198 0.0 0.0 0.00 0.00 0.00 64 1013.3
20260502051515 37 198 0.0 1.0 0.00 0.00 0.00 65 1013.2
20260502050017 37 199 0.0 1.0 0.00 0.00 0.00 66 1013.3
20260502044504 36 199 0.0 0.0 0.00 0.00 0.00 66 1013.0
20260502043119 36 199 0.0 0.0 0.00 0.00 0.00 66 1012.8
20260502041558 36 199 0.0 0.0 0.00 0.00 0.00 66 1013.0
20260502040105 35 199 0.0 0.0 0.00 0.00 0.00 66 1013.0
20260502034602 35 199 0.0 0.0 0.00 0.00 0.00 66 1013.0
20260502033056 36 199 0.0 0.0 0.00 0.00 0.00 66 1013.0
20260502031552 36 199 0.0 0.0 0.00 0.00 0.00 65 1012.9
20260502030051 37 199 0.0 0.0 0.00 0.00 0.00 65 1012.8